Weather History for Fort Myers, FL

Change the Weather History Date:

Sunday, May 11, 2014

  Actual Average Record
Temperature  
Mean Temperature 83 °F 78 °F  
Max Temperature 93 °F 89 °F 95 °F (2012)
Min Temperature 72 °F 68 °F 55 °F (1908)
Degree Days  
Heating Degree Days 0 0  
Month to date heating degree days 0 0  
Since 1 July heating degree days 178 287  
Cooling Degree Days 18 13  
Month to date cooling degree days 160 134  
Year to date cooling degree days 887 764  
Growing Degree Days 32 (Base 50)    
Moisture  
Dew Point 67 °F    
Average Humidity 66    
Maximum Humidity 93    
Minimum Humidity 32    
Precipitation  
Precipitation 0.00 in 0.06 in 3.89 in (1977)
Month to date precipitation 0.54 0.65  
Year to date precipitation 8.10 9.80  
Sea Level Pressure  
Sea Level Pressure 30.08 in    
Wind  
Wind Speed 7 mph (ESE)    
Max Wind Speed 15 mph    
Max Gust Speed 20 mph    
Visibility 10 miles    
Events      
T = Trace of Precipitation, MM = Missing Value Source: NWS Daily Summary

Daily Weather History Graph

Daily Weather History Graph

Search for Another Location

Airport:

Trip Planner

Search our weather history database for the weather conditions in past years. The results will help you decide how hot, cold, wet, or windy it might be!

Date:

Astronomy

May. 11, 2014 Rise Set
Actual Time 6:42 AM EDT 8:05 PM EDT
Civil Twilight 6:17 AM EDT 8:30 PM EDT
Nautical Twilight 5:48 AM EDT 9:00 PM EDT
Astronomical Twilight 5:17 AM EDT 9:30 PM EDT
Moon 5:16 PM EDT (5/11) 4:27 AM EDT (5/11)
Length of Visible Light 14h 12m
Length of Day
13h 22m
Waxing Gibbous, 89% of the Moon is Illuminated
May 11
Waxing Gibbous
May 14
Full
May 21
Last Quarter
May 28
New
Jun 5
First Quarter

Hourly Weather History & Observations

Time (EDT) Temp. Heat Index Dew Point Humidity Pressure Visibility Wind Dir Wind Speed Gust Speed Precip Events Conditions
12:53 AM 75.9 °F - 69.1 °F 79% 30.10 in 10.0 mi ESE 6.9 mph - N/A   Clear
1:53 AM 75.0 °F - 70.0 °F 84% 30.07 in 10.0 mi ESE 8.1 mph - N/A   Clear
2:53 AM 73.9 °F - 70.0 °F 87% 30.06 in 10.0 mi ESE 8.1 mph - N/A   Clear
3:53 AM 73.9 °F - 70.0 °F 87% 30.06 in 10.0 mi ESE 6.9 mph - N/A   Clear
4:53 AM 73.0 °F - 70.0 °F 90% 30.06 in 10.0 mi ESE 5.8 mph - N/A   Clear
5:53 AM 72.0 °F - 70.0 °F 93% 30.08 in 9.0 mi East 4.6 mph - N/A   Clear
6:53 AM 72.0 °F - 70.0 °F 93% 30.10 in 9.0 mi East 3.5 mph - N/A   Clear
7:53 AM 73.9 °F - 71.1 °F 91% 30.12 in 9.0 mi East 4.6 mph - N/A   Clear
8:53 AM 77.0 °F - 71.1 °F 82% 30.13 in 10.0 mi SE 5.8 mph - N/A   Clear
9:53 AM 80.1 °F 83.2 °F 70.0 °F 71% 30.13 in 10.0 mi SE 12.7 mph - N/A   Clear
10:53 AM 84.0 °F 88.4 °F 70.0 °F 63% 30.13 in 10.0 mi SE 9.2 mph - N/A   Clear
11:53 AM 84.0 °F 86.5 °F 66.9 °F 56% 30.13 in 10.0 mi ESE 8.1 mph - N/A   Clear
12:53 PM 87.1 °F 89.2 °F 66.0 °F 49% 30.12 in 10.0 mi Variable 3.5 mph - N/A   Clear
1:53 PM 89.1 °F 90.3 °F 64.0 °F 43% 30.10 in 10.0 mi Calm Calm - N/A   Clear
2:53 PM 90.0 °F 92.4 °F 66.0 °F 45% 30.07 in 10.0 mi Variable 6.9 mph - N/A   Scattered Clouds
3:53 PM 91.0 °F 92.6 °F 64.0 °F 41% 30.05 in 10.0 mi ESE 12.7 mph 17.3 mph N/A   Partly Cloudy
4:53 PM 91.0 °F 90.2 °F 59.0 °F 34% 30.03 in 10.0 mi SE 9.2 mph - N/A   Partly Cloudy
5:53 PM 91.0 °F 90.0 °F 57.9 °F 33% 30.02 in 10.0 mi ESE 8.1 mph - N/A   Clear
6:53 PM 86.0 °F 90.7 °F 70.0 °F 59% 30.02 in 10.0 mi WSW 6.9 mph - N/A   Scattered Clouds
7:53 PM 82.9 °F 87.0 °F 70.0 °F 65% 30.04 in 10.0 mi SSW 3.5 mph - N/A   Mostly Cloudy
8:53 PM 82.9 °F 85.0 °F 66.0 °F 56% 30.06 in 10.0 mi ESE 8.1 mph - N/A   Mostly Cloudy
9:53 PM 80.1 °F 81.7 °F 64.0 °F 58% 30.09 in 10.0 mi ESE 9.2 mph - N/A   Clear
10:53 PM 78.1 °F - 62.1 °F 58% 30.11 in 10.0 mi ESE 9.2 mph - N/A   Clear
11:53 PM 75.9 °F - 62.1 °F 62% 30.12 in 10.0 mi ESE 8.1 mph - N/A   Clear